Home   Weather   Albury   Past weeks

Flag for Australia Past Weather in Albury, New South Wales, Australia — Yesterday and Last 2 Weeks

Now
48 °F

Passing clouds.


Feels Like: 44 °F
Forecast: 44 / 58 °F
Wind: 10 mph from West

Location: Albury Airport

Current Time: Sep 27, 2016 at 5:06:39 AM

Latest Report: Sep 27, 2016 at 4:00 AM


Visibility: N/A

Pressure: 29.80 "Hg

Humidity: 94%

Dew Point: 46 °F

Location of AlburyLocation

Past Weather in Albury — Graph

°F

Albury Temperature Yesterday

Maximum temperature yesterday: 61 °F (at 12:00 PM)
Minimum temperature yesterday: 41 °F (at 5:00 AM)
Average temperature yesterday: 51 °F

High & Low Weather Summary for the Past Weeks

 TemperatureHumidityPressure
High68 °F (Sep 23, 4:00 PM)100% (Sep 12, 5:00 AM)30.18 "Hg (Sep 12, 5:00 AM)
Low41 °F (Sep 17, 2:00 AM)45% (Sep 26, 12:00 PM)29.65 "Hg (Sep 18, 4:00 PM)
Average54 °F81%29.91 "Hg
* Reported Sep 12 4:00 AM — Sep 27 4:00 AM, Albury, Weather by CustomWeather, © 2016

Note: Actual official high and low records may vary slightly from our data, if they occured in-between our weather recording intervals... More about our weather records

Advertising

Albury Weather History for the Previous 24 Hours

Scroll right to see more
 ConditionsComfort  
Time TempWeatherWind HumidityBarometerVisibility
4:00 AM
Tue, Sep 27
48 °FPassing clouds.10 mph94%29.80 "HgN/A
3:00 AM50 °FMostly cloudy.8 mph94%29.80 "HgN/A
2:00 AM50 °FOvercast.3 mph88%29.80 "HgN/A
1:00 AM50 °FPassing clouds.6 mph88%29.83 "HgN/A
12:00 AM52 °FPartly cloudy.6 mph77%29.86 "HgN/A
11:00 PM
Mon, Sep 26
52 °FOvercast.6 mph82%29.89 "HgN/A
10:00 PM50 °FMostly cloudy.2 mph82%29.89 "HgN/A
9:00 PM50 °FClear.5 mph82%29.86 "HgN/A
8:00 PM52 °FPassing clouds.3 mph77%29.89 "HgN/A
7:00 PM54 °FPassing clouds.5 mph72%29.86 "HgN/A
6:00 PM55 °FCloudy.6 mph67%29.86 "HgN/A
5:00 PM59 °FMore clouds than sun.3 mph55%29.86 "HgN/A
4:00 PM59 °FOvercast.10 mph51%29.86 "HgN/A
3:00 PM59 °FBroken clouds.10 mph51%29.86 "HgN/A
2:00 PM57 °FMore clouds than sun.14 mph59%29.89 "HgN/A
1:00 PM57 °FMore clouds than sun.10 mph55%29.89 "HgN/A
12:00 PM61 °FPartly sunny.14 mph45%29.92 "HgN/A
11:00 AM57 °FMore clouds than sun.3 mph63%29.92 "HgN/A
10:00 AM55 °FOvercast.3 mph67%29.95 "HgN/A
9:00 AM52 °FBroken clouds.5 mph72%29.95 "HgN/A
8:00 AM48 °FOvercast.3 mph82%29.95 "HgN/A
7:00 AM43 °FScattered clouds.2 mph93%29.95 "HgN/A
6:00 AM41 °FScattered clouds.No wind93%29.95 "HgN/A
5:00 AM41 °FClear.No wind93%29.92 "HgN/A
Weather by CustomWeather, © 2016

See weather overviewHow to use our weather pages